Wind_Speed
0 2 2 3 4 4 4 3 2 3 3 3 2 2 2 2 4 3 1 1 1 3 3 4 5 4 4 7 9 10 10 10 10 10 9 10 10 10 11 11 10 10 9 8 7 9 10 10 10 9 10 11 13 15 15 16 17 17 17 17 16 15 16 14 13 13 12 11 11 10 10 9 10 10 9 9 10 9 8 7 7 7 7 7 7 7
1 3 4 5 5 3 3 4 4 4 2 1 2 2 2 3 4 2 0 1 1 3 1 2 4 2 2 5 5 6 9 10 10 10 9 11 11 10 11 12 12 9 7 6 8 10 11 12 11 11 11 12 14 17 17 16 15 16 17 17 17 16 15 14 14 13 12 12 13 12 12 12 13 11 9 10 10 9 8 7 7 7 8 7 7 7
2 5 6 4 4 5 4 4 3 3 2 1 1 2 1 2 3 1 1 3 2 2 0 3 4 2 2 1 1 2 4 6 7 8 8 10 10 10 11 11 11 10 8 8 9 11 13 14 13 13 13 13 15 16 16 14 12 13 14 14 16 17 16 15 14 13 12 12 12 11 13 14 14 12 10 11 10 8 8 7 7 6 6 6 6 6
3 4 3 4 6 6 4 3 4 3 1 2 2 2 1 0 1 1 1 3 3 0 1 4 4 3 3 2 2 1 2 2 3 4 6 8 9 10 10 9 11 12 11 10 10 10 13 16 16 15 14 14 14 12 12 13 9 9 11 14 18 18 17 16 15 14 13 12 12 11 13 14 13 13 12 11 9 8 6 6 7 6 5 5 5 6
4 1 2 6 6 5 4 3 4 3 2 2 3 4 2 1 3 1 1 2 2 2 4 3 4 3 2 4 5 2 1 2 4 4 6 8 9 8 9 10 10 11 12 12 12 11 13 15 16 16 14 12 10 7 8 8 5 5 5 7 11 13 15 16 15 15 15 14 14 14 14 13 12 12 11 10 9 7 6 6 7 7 6 7 7 7
4 1 4 5 3 4 4 3 5 5 3 2 5 8 6 3 3 2 1 1 2 3 3 1 2 3 3 3 4 3 4 5 4 6 9 9 10 9 9 10 10 11 11 12 13 13 12 14 16 14 11 10 9 9 9 7 6 7 7 5 5 5 9 13 15 16 17 17 16 17 16 13 12 11 10 9 9 8 8 9 9 8 8 8 7 7
2 2 3 3 3 4 4 3 5 6 3 1 3 7 7 4 2 2 1 1 2 2 2 1 1 3 3 3 1 2 6 7 5 6 8 9 10 10 10 11 11 12 11 11 13 13 13 14 14 10 9 12 14 14 12 10 10 12 14 13 11 10 11 12 14 16 17 18 17 17 16 13 12 11 10 10 9 9 10 11 11 10 9 8 7 6
3 4 2 2 4 4 4 3 5 8 5 2 1 5 7 5 4 3 1 1 0 0 1 1 2 2 3 2 1 2 5 7 6 7 8 8 9 10 11 12 12 12 11 11 12 13 14 11 7 7 14 18 19 16 14 14 15 15 16 15 15 17 15 12 14 16 17 17 17 17 16 13 12 11 11 11 9 10 11 12 12 11 10 8 7 6
3 4 4 4 3 3 4 3 8 11 4 0 2 4 5 4 3 2 2 2 1 1 3 1 3 1 2 1 1 3 4 6 6 7 7 7 8 9 10 11 11 12 12 11 11 12 10 3 12 18 22 23 18 14 14 15 16 15 14 15 17 18 15 12 14 17 17 17 16 17 16 13 12 11 11 11 10 11 12 12 12 10 9 8 7 6
0 3 4 5 2 3 3 0 7 9 2 2 5 6 6 4 3 2 1 3 1 2 4 1 4 1 3 0 1 2 3 3 2 3 3 4 6 7 8 8 8 8 9 10 9 6 5 16 27 28 23 17 12 12 15 16 16 15 16 18 19 18 16 15 16 18 18 17 16 17 15 14 14 13 12 12 12 13 13 12 11 10 8 7 6 7
1 1 1 3 2 2 3 4 1 2 3 5 6 6 5 3 2 2 2 2 2 3 2 2 5 1 3 1 1 1 1 1 3 3 2 3 5 6 6 6 6 6 6 6 5 7 17 25 29 26 20 18 18 17 18 18 17 17 20 21 19 18 17 17 18 19 19 19 18 16 15 14 15 15 14 14 14 14 13 12 11 9 7 7 7 8
2 1 1 2 1 3 5 5 3 2 3 3 2 4 4 2 1 1 1 0 4 3 2 2 3 2 3 2 1 1 2 3 4 5 6 6 7 5 4 4 5 4 3 5 6 10 17 19 18 17 18 21 22 22 24 26 24 22 22 22 21 20 19 18 20 20 20 20 19 16 14 13 14 13 13 15 16 15 14 12 10 9 8 9 9 9
2 3 2 2 1 3 4 5 3 2 1 1 2 4 4 2 1 2 1 1 3 1 1 2 1 1 2 1 2 3 5 5 5 5 7 9 8 6 4 2 1 2 4 6 7 10 13 12 12 14 16 18 21 22 19 17 20 24 24 25 24 21 20 21 22 22 22 22 20 17 15 13 13 11 10 12 14 14 13 11 10 10 10 10 11 10
3 2 1 1 1 2 5 5 4 3 3 4 4 4 4 4 2 3 1 1 2 1 1 2 1 1 1 1 2 4 6 6 5 5 5 6 5 3 3 5 6 7 7 7 8 10 10 9 10 11 12 11 11 12 11 9 11 19 21 23 23 21 22 24 25 24 24 23 20 18 16 14 13 11 9 10 12 13 13 11 10 9 10 10 10 9
3 2 2 3 1 2 6 4 3 4 4 2 1 1 4 4 3 3 3 3 3 1 2 1 1 2 2 1 3 5 4 3 3 3 2 2 3 6 8 10 11 10 9 9 10 11 10 9 8 7 8 7 8 16 17 9 13 16 17 21 23 23 26 27 26 25 24 23 21 19 18 16 14 12 10 11 12 12 12 11 10 9 9 9 9 8
1 3 2 1 1 2 5 2 3 4 4 1 0 1 2 3 3 1 0 1 1 1 1 2 1 1 0 0 2 3 1 2 3 2 3 6 7 9 10 11 11 10 9 9 10 11 11 11 10 7 2 5 16 21 16 11 14 14 16 21 24 25 27 27 25 24 24 23 22 21 20 18 16 14 12 12 13 12 11 11 11 10 9 9 8 8
1 2 2 1 1 0 2 2 2 1 3 3 2 3 1 0 4 3 2 2 1 2 2 1 1 1 1 2 3 3 3 3 3 3 5 6 8 10 10 10 10 10 9 8 8 9 10 10 11 11 4 7 18 23 16 14 14 16 21 23 25 25 25 24 24 24 23 22 22 22 21 20 19 16 14 13 14 14 12 11 12 11 10 9 8 7
2 2 1 0 2 2 2 2 5 3 1 3 3 5 4 1 2 2 2 2 0 3 2 0 1 1 2 3 3 4 4 4 4 4 5 5 7 8 8 6 7 8 8 8 7 5 6 7 10 14 11 6 17 21 15 15 17 19 22 24 24 24 25 26 26 24 23 22 21 21 22 22 20 17 15 13 14 14 13 13 12 11 10 9 8 7
2 2 1 1 1 2 3 1 5 4 3 1 2 5 3 2 2 2 1 2 3 3 1 1 0 1 4 2 2 5 5 5 5 3 4 4 5 5 5 4 3 4 4 5 6 3 1 5 9 18 18 8 12 14 11 12 17 19 21 21 20 21 22 24 24 24 23 21 20 20 20 21 20 18 16 15 14 15 14 13 13 11 10 8 8 7
1 2 2 0 1 1 1 1 3 3 4 4 4 3 1 1 2 2 1 1 4 3 1 2 1 3 4 2 3 6 6 6 7 5 4 3 2 2 2 2 1 2 2 2 5 4 3 5 6 17 21 16 14 14 12 12 16 18 19 18 17 16 15 16 19 21 22 21 20 19 19 20 19 18 17 15 15 15 14 13 13 12 11 10 9 7
1 2 2 0 1 2 1 0 2 3 3 2 4 4 1 1 1 1 2 1 1 3 2 3 3 2 1 0 1 2 3 5 6 5 4 3 3 3 3 3 2 3 4 3 4 4 4 3 7 12 15 18 18 18 21 20 18 16 17 18 16 13 10 10 13 16 18 20 19 18 19 19 19 18 17 16 16 16 15 14 14 12 11 11 10 9
1 2 2 0 0 2 1 2 2 2 2 2 3 3 3 3 3 4 3 1 0 1 2 3 3 2 3 2 2 2 2 3 4 4 4 3 4 4 3 3 3 3 5 5 5 4 3 5 9 10 11 14 14 14 18 21 18 15 15 14 13 11 8 7 10 12 14 16 17 18 19 19 20 19 17 16 16 16 16 15 14 13 12 11 10 9
1 2 2 1 1 1 1 2 1 1 2 2 1 1 2 2 3 3 4 3 2 1 1 1 2 2 3 3 3 3 3 1 3 3 4 4 4 5 4 4 4 4 5 5 4 4 6 8 9 10 10 10 9 8 8 10 12 13 12 9 8 9 7 7 9 11 12 14 15 17 17 17 18 18 17 17 17 17 16 15 14 13 12 11 9 8
1 1 2 2 1 1 0 0 1 0 2 3 4 3 0 1 2 1 1 2 3 3 2 2 3 3 4 5 3 1 1 3 4 3 5 5 5 5 5 5 4 4 5 5 5 5 6 8 10 10 10 9 7 6 5 5 5 7 7 5 4 5 6 7 8 10 11 12 13 13 14 14 15 15 15 16 16 17 17 16 14 13 12 11 8 7
0 0 1 3 3 1 2 2 1 1 1 2 2 2 1 2 4 3 2 2 3 2 2 3 4 3 3 5 6 5 5 6 6 5 5 5 5 4 4 4 4 4 5 5 5 5 5 7 8 8 9 9 8 7 5 5 5 4 4 3 4 5 5 6 7 9 10 11 11 12 12 12 12 12 12 13 15 17 17 16 15 13 12 11 9 7
1 1 1 2 5 5 4 2 1 1 1 1 1 1 1 2 3 3 3 3 4 3 2 2 2 3 3 5 8 8 6 6 7 6 6 5 5 4 4 4 4 4 5 5 4 5 6 6 8 8 8 7 6 6 5 5 5 4 4 4 3 4 5 6 6 7 9 10 11 11 11 11 12 11 11 12 15 17 18 17 16 14 13 12 9 7
3 2 2 1 1 2 2 1 1 1 1 2 2 2 2 2 1 2 3 2 3 4 3 1 1 5 3 5 8 8 7 6 5 5 5 5 5 5 4 5 5 5 5 5 5 6 7 8 9 10 9 7 6 5 5 5 4 4 4 4 4 3 3 6 7 7 8 9 10 10 11 13 13 13 14 15 16 18 18 17 16 14 12 10 8 7
4 3 3 4 5 5 3 1 0 1 3 4 3 3 3 3 2 2 2 2 3 4 3 1 2 4 3 6 7 6 7 5 5 5 4 4 4 4 4 6 7 7 7 7 8 9 9 9 9 11 11 10 9 8 7 6 4 4 4 6 7 5 3 5 8 8 8 9 9 10 11 12 12 13 15 16 17 17 16 15 14 12 9 8 8 7
5 1 2 2 5 7 6 4 3 4 4 4 5 6 5 5 4 2 3 1 1 1 1 3 5 4 2 5 6 6 5 4 4 4 3 4 4 3 6 8 8 8 9 9 9 9 9 9 9 10 12 12 12 11 10 7 5 4 4 6 8 6 3 4 8 9 8 8 9 10 10 10 11 12 14 15 16 15 14 13 12 10 9 9 8 7
4 1 1 1 4 7 7 5 5 5 3 4 7 7 6 6 6 5 4 2 3 4 3 5 9 7 3 4 5 5 3 2 3 4 5 6 5 6 9 9 9 9 9 9 9 9 9 9 9 10 12 12 13 13 12 11 9 6 5 6 6 5 3 4 7 9 8 8 9 11 11 11 12 13 13 14 14 14 13 13 12 11 11 10 9 8
2 2 1 1 3 4 5 4 6 6 5 4 5 6 6 5 5 5 4 2 3 6 4 5 8 7 3 3 4 3 2 4 6 8 9 7 6 8 11 10 9 9 9 9 9 9 9 9 10 12 12 13 14 15 15 14 13 10 8 6 5 5 5 5 6 8 8 8 8 9 10 11 11 12 12 13 13 13 13 13 12 11 11 10 8 7
2 3 2 2 2 0 3 4 5 6 6 4 2 4 6 4 3 4 3 3 2 3 5 4 4 4 3 3 5 6 7 9 11 10 9 8 9 11 12 11 11 10 10 10 10 10 10 10 11 12 12 13 15 17 17 16 15 14 11 8 7 6 6 5 6 6 7 7 8 8 9 10 10 11 11 12 13 12 12 12 11 11 10 9 8 7
1 4 4 2 3 2 2 4 4 4 3 1 1 1 2 2 3 2 3 4 4 1 2 2 3 4 3 3 7 9 11 12 11 9 8 9 10 12 12 12 11 11 10 10 11 11 11 11 12 12 12 13 15 17 18 17 17 16 13 10 9 9 8 8 7 7 7 7 7 7 8 9 10 10 10 10 10 10 10 10 10 10 10 9 9 9
2 4 3 1 2 3 3 4 3 3 3 1 2 2 3 1 5 5 4 5 4 2 2 4 6 7 5 6 9 10 10 10 10 9 9 8 9 11 12 12 11 10 10 10 11 11 11 11 12 13 13 12 14 16 18 19 19 18 15 13 11 11 11 11 10 10 9 8 8 7 7 8 8 9 9 9 9 9 11 12 12 12 12 12 13 13
3 3 2 1 2 3 4 4 4 4 2 2 4 1 2 4 7 10 9 8 7 5 7 10 11 9 8 9 10 11 11 10 10 11 11 10 8 9 11 11 11 10 9 9 9 10 10 11 12 13 14 14 15 16 17 18 18 18 17 15 13 11 11 11 11 11 11 10 9 9 9 9 10 10 10 10 11 12 13 14 14 13 13 13 13 13
3 3 2 2 2 2 3 3 3 1 2 2 2 2 3 3 4 7 9 9 8 5 5 10 10 8 8 8 7 8 8 9 11 11 10 9 8 8 9 10 10 10 9 9 9 9 10 12 13 14 15 15 15 15 14 15 15 15 16 15 14 14 14 15 14 14 13 12 11 10 9 10 11 11 11 11 12 13 12 12 12 12 13 12 12 12
2 3 2 1 1 2 3 1 1 2 1 2 3 1 1 1 2 1 3 5 5 4 2 6 7 5 5 5 4 3 2 4 9 9 9 9 8 8 9 8 8 9 9 9 10 10 12 14 14 16 16 16 16 14 12 11 10 10 11 11 11 12 13 14 15 15 14 13 12 11 10 9 8 8 9 9 10 11 11 11 11 12 12 12 12 11
2 1 3 3 1 1 2 1 0 1 2 3 3 2 2 1 2 2 1 3 3 3 2 2 4 3 2 3 3 2 2 2 7 6 6 8 7 7 8 8 8 9 9 9 10 11 13 14 14 15 17 17 17 17 14 11 9 7 7 9 9 8 7 6 7 7 7 8 8 7 6 5 4 4 5 6 8 9 10 11 11 12 12 11 11 10
6 3 1 3 3 2 3 3 3 2 1 1 2 3 4 1 2 2 2 3 2 3 2 2 3 3 1 0 1 2 2 2 5 4 4 6 6 6 7 8 9 10 10 10 11 11 13 14 14 15 17 17 18 17 15 13 11 8 7 8 8 6 6 5 2 1 1 2 3 5 6 8 8 10 11 11 11 11 10 10 10 10 10 9 8 8
5 4 2 2 3 3 3 2 2 2 0 2 3 5 4 1 3 4 4 4 3 2 1 3 5 4 3 2 2 2 2 3 4 3 4 5 5 6 7 8 9 11 11 12 13 14 15 15 16 16 16 16 16 15 15 14 12 11 9 9 8 7 8 8 8 7 8 8 7 6 7 9 11 11 12 12 12 11 10 10 9 9 8 7 6 6
3 3 1 2 2 1 2 2 1 0 0 1 4 6 4 1 4 4 2 3 4 3 2 4 6 6 6 5 4 4 5 4 4 3 4 5 5 7 8 8 8 9 10 11 13 15 15 15 16 15 14 14 14 14 14 14 13 12 12 11 10 10 11 11 11 12 13 13 12 11 10 11 13 12 11 11 11 11 11 10 9 8 7 7 6 5
2 2 2 2 2 1 1 2 1 1 1 2 5 5 2 2 3 2 2 2 3 4 4 5 6 6 6 7 6 5 4 5 4 4 5 5 6 6 8 9 9 10 11 12 14 15 16 15 15 15 14 14 14 13 13 13 12 12 13 12 12 12 12 13 13 14 14 13 13 13 14 14 15 15 14 12 13 13 13 12 11 10 9 9 8 7
3 2 2 2 1 1 2 2 1 2 2 4 5 3 1 0 2 4 4 3 3 5 5 5 6 5 5 6 6 4 4 4 4 4 5 5 5 6 7 8 9 9 11 12 13 14 14 13 12 13 14 14 13 13 13 13 12 12 12 12 12 14 14 14 15 15 15 14 14 14 14 16 18 19 17 15 15 16 15 14 14 14 13 13 12 10
3 2 1 1 1 1 1 2 1 0 3 5 3 1 4 4 3 4 4 4 3 3 3 4 4 4 4 4 4 4 4 4 4 5 5 5 5 6 7 8 9 9 10 10 11 12 12 11 11 12 13 13 14 13 13 13 13 12 12 13 14 16 16 16 16 17 16 16 16 16 16 16 18 21 21 19 18 19 18 17 17 17 16 15 14 12
3 2 1 2 2 2 3 3 2 0 3 4 4 5 6 6 4 3 3 4 3 1 1 2 3 3 3 3 3 3 4 4 4 4 4 4 5 6 7 8 8 8 9 9 9 10 10 10 11 11 12 12 13 13 14 14 14 15 14 14 15 16 17 18 18 18 17 17 16 16 16 17 18 21 23 22 22 21 21 21 20 19 17 16 15 13
2 1 2 3 4 4 5 4 2 1 1 3 4 4 4 3 3 2 3 2 1 1 1 1 2 3 2 3 3 3 3 3 3 3 3 4 5 6 8 9 9 9 10 10 10 11 12 11 11 11 12 12 12 12 13 14 15 15 17 17 17 17 18 19 19 20 19 18 17 16 16 16 17 19 23 25 25 24 24 23 21 20 19 18 17 15
1 0 2 3 3 2 3 3 2 1 2 1 1 2 2 2 2 1 1 2 2 3 3 2 3 3 3 3 3 2 2 2 2 3 3 3 5 7 8 9 10 10 10 10 11 12 12 12 12 12 13 13 12 12 13 14 15 15 17 18 18 18 19 19 20 21 21 20 18 17 16 15 16 18 21 24 25 24 23 21 20 20 19 18 18 16
1 0 2 3 2 2 3 4 2 1 1 1 0 1 2 2 3 2 2 3 3 4 4 4 4 3 3 3 3 2 2 2 2 4 4 4 5 6 7 8 9 10 10 10 11 11 12 12 12 13 14 14 13 13 13 14 15 16 18 18 18 19 20 20 20 21 21 22 20 18 17 16 15 16 19 22 22 22 21 20 19 19 19 18 16 15
1 0 1 2 3 3 3 3 3 2 2 3 3 2 1 1 2 3 4 4 4 5 5 5 4 3 2 2 1 2 4 4 4 5 5 5 6 7 7 8 9 10 11 11 11 11 12 13 14 14 15 15 14 13 14 14 15 16 17 18 19 19 19 20 21 22 22 22 21 20 19 18 16 16 17 18 18 17 17 16 16 16 16 15 14 12
1 2 2 3 4 3 2 5 6 3 1 3 5 3 2 2 2 3 3 4 4 4 3 2 2 1 1 1 2 3 5 5 5 6 6 6 7 8 10 11 12 12 13 13 13 13 14 15 15 15 16 16 15 15 15 15 15 15 16 17 18 18 17 18 20 21 23 22 21 21 21 20 18 16 15 15 14 13 13 14 14 14 14 13 12 13
1 3 2 2 3 1 2 6 6 1 2 2 4 4 4 3 3 4 4 4 4 3 2 1 0 1 1 1 2 3 4 5 6 6 7 7 8 9 10 11 13 14 14 15 15 16 17 17 16 16 17 16 16 16 17 16 16 16 16 17 17 16 15 16 16 18 20 20 20 20 21 20 19 16 15 15 14 13 14 14 14 15 15 14 14 15
Wind_Direction
204 173 181 200 196 198 195 188 154 116 115 130 142 201 220 246 261 265 254 1 280 232 210 203 222 212 166 168 171 178 186 189 191 186 186 188 187 187 187 186 181 178 194 211 216 211 209 212 210 198 194 189 182 186 183 176 177 171 169 176 179 183 187 181 174 175 172 164 159 158 155 148 145 142 136 133 130 125 120 112 102 94 89 87 96 103
217 195 212 220 201 181 161 145 127 119 116 129 173 232 234 222 255 287 118 358 291 224 209 153 198 189 140 168 164 175 186 194 201 198 197 197 197 195 192 193 190 181 180 195 217 220 214 214 208 195 194 189 185 191 187 182 181 170 164 171 176 183 187 183 181 182 178 172 168 161 158 152 146 145 142 138 134 128 122 113 108 98 88 88 98 103
212 217 227 211 145 99 101 131 141 130 136 127 162 237 212 209 262 291 235 348 10 213 179 121 160 98 45 157 117 119 169 189 202 204 210 207 205 204 199 197 197 192 180 182 205 217 216 213 207 199 195 191 190 192 188 185 180 166 161 167 178 185 185 184 183 181 179 176 171 161 156 152 147 148 147 140 132 123 120 121 124 114 95 94 106 114
196 244 236 161 141 127 106 124 137 122 170 182 171 212 200 179 257 163 129 350 3 10 86 122 130 75 57 114 126 53 52 103 155 184 214 219 216 213 207 202 201 201 198 195 200 207 214 212 207 203 196 189 188 185 181 185 179 165 172 180 185 186 186 186 179 176 180 174 166 159 156 153 149 148 146 138 130 124 122 126 133 133 121 112 118 124
218 287 97 124 145 153 124 132 163 165 201 218 206 216 227 219 243 247 34 316 288 60 64 116 136 103 91 144 162 163 126 129 136 169 203 220 227 222 216 216 211 210 207 207 209 208 211 211 208 206 195 180 173 162 158 167 164 153 166 175 175 179 184 187 179 175 179 171 162 159 155 153 148 146 146 139 132 129 122 120 127 129 124 119 123 128
244 180 132 132 133 158 145 163 197 190 190 228 214 216 220 209 234 266 0 285 195 102 52 353 168 132 84 127 156 159 191 182 163 193 206 210 219 219 220 221 218 219 214 212 215 214 212 212 211 204 182 152 136 125 121 128 148 172 186 171 135 157 185 188 185 180 178 171 166 166 162 158 152 147 148 145 137 134 126 122 123 121 120 120 123 129
233 122 144 152 137 160 174 213 211 186 178 224 208 203 202 185 184 218 210 194 184 124 68 333 213 150 96 94 138 180 196 190 177 203 212 211 214 214 219 222 220 222 219 216 218 218 217 214 209 189 143 121 112 113 124 144 166 182 193 187 173 187 198 190 185 180 175 173 175 177 173 168 162 153 153 153 144 137 131 126 123 119 119 121 120 123
157 124 108 126 118 150 187 226 200 180 178 194 161 165 168 169 179 182 160 145 167 83 145 357 336 162 129 118 223 205 184 193 204 210 212 214 214 211 214 217 217 218 217 216 217 219 223 213 186 133 114 114 114 122 142 161 174 182 188 185 180 187 192 190 183 179 181 183 185 182 174 168 166 159 156 155 146 140 137 130 127 124 122 123 121 120
146 175 178 155 123 174 207 216 177 175 186 301 115 124 138 149 157 152 130 115 62 239 177 17 351 182 154 113 177 183 176 193 212 218 220 223 224 222 219 215 212 214 215 217 217 220 226 154 97 95 99 105 116 140 160 166 174 182 186 185 183 182 185 196 192 185 191 195 189 180 169 163 165 164 160 155 148 145 142 136 130 128 126 125 124 123
126 221 185 163 175 215 218 163 170 175 184 137 127 101 92 88 78 80 110 115 113 215 182 12 347 211 188 57 106 175 168 176 214 237 241 249 252 245 238 230 216 209 211 215 217 207 119 99 104 106 104 110 134 169 174 169 172 181 184 182 181 181 185 198 197 190 195 197 189 178 167 164 166 166 162 155 151 149 146 142 134 130 128 125 128 131
349 342 144 182 220 184 115 77 124 146 114 145 135 102 97 76 51 62 42 74 178 203 165 4 341 296 201 221 296 219 126 9 310 285 280 299 293 271 254 244 227 215 209 195 178 124 107 113 122 128 134 149 168 175 169 168 176 183 181 178 180 185 187 195 197 194 195 194 190 181 172 170 169 168 166 160 156 155 152 147 140 134 131 131 137 140
332 272 216 228 196 131 111 91 58 51 107 147 134 127 135 87 32 113 39 339 203 192 93 16 329 278 210 197 246 286 353 340 306 296 303 304 296 290 283 260 231 211 166 141 143 125 119 127 135 138 146 155 165 170 170 176 182 181 177 176 179 183 188 197 199 197 196 195 193 186 181 179 173 170 171 168 164 162 160 155 148 141 135 137 145 144
260 229 275 319 193 172 137 107 96 88 85 161 135 148 163 150 167 201 207 218 222 222 50 9 308 234 236 271 294 315 336 336 318 303 300 297 291 298 310 282 183 117 119 132 142 132 128 139 147 147 154 162 168 172 171 171 172 173 177 179 176 179 191 202 202 199 200 200 196 190 187 187 180 174 175 177 173 170 169 165 158 150 142 145 150 148
228 244 311 214 201 196 177 156 149 164 184 182 162 163 172 152 157 194 185 230 247 249 29 349 290 197 209 302 296 315 331 336 332 320 305 298 302 344 48 89 91 89 99 112 122 124 127 141 146 148 160 169 167 147 115 102 154 172 179 181 179 182 194 203 204 202 203 202 199 194 192 193 188 181 182 186 183 177 175 172 165 155 148 152 155 152
209 225 195 188 164 166 189 191 149 144 154 173 171 162 173 165 176 202 196 203 211 158 87 154 207 192 157 58 326 323 334 353 355 354 17 49 75 86 91 94 92 92 93 100 110 117 130 144 138 137 157 152 96 86 95 133 192 190 182 183 187 191 196 201 202 201 202 202 200 197 196 197 195 190 189 192 189 183 177 172 165 153 145 151 158 156
220 252 249 265 337 169 194 190 102 121 133 126 348 146 180 183 151 140 139 166 189 151 138 178 215 271 221 265 306 308 351 42 34 51 91 97 103 104 101 99 98 97 96 100 110 123 145 156 149 147 151 99 99 102 119 173 204 203 193 192 197 202 204 204 202 199 200 201 201 201 200 200 199 195 193 191 189 185 178 171 162 150 143 148 153 152
154 254 297 337 93 87 242 171 108 186 159 133 182 177 169 75 113 115 114 55 12 204 175 170 223 226 218 198 182 173 145 109 84 86 98 104 112 111 107 110 112 111 112 115 122 141 157 163 161 155 118 91 125 135 154 184 196 203 205 202 201 205 206 204 204 203 202 201 201 203 203 202 200 198 197 194 189 183 178 172 162 150 148 150 153 150
198 211 341 1 126 43 327 137 84 20 106 142 182 163 135 80 83 111 149 91 126 205 173 127 226 183 197 181 153 167 160 129 110 91 95 106 113 111 107 111 115 118 124 120 116 134 154 168 164 138 115 134 160 159 171 192 195 202 210 209 203 203 204 204 205 205 204 204 204 206 206 204 203 201 200 199 193 184 178 175 167 156 152 154 156 156
211 219 326 292 170 45 340 152 109 54 23 45 143 134 133 189 166 146 162 152 181 200 166 154 252 236 213 203 165 186 179 146 140 126 124 122 110 107 101 98 98 105 113 115 115 112 191 205 161 126 121 156 189 177 179 199 203 205 212 214 207 206 206 205 206 206 206 207 210 213 212 208 205 202 202 203 198 189 181 178 172 160 155 156 159 163
137 232 217 251 294 0 355 236 180 133 57 57 118 118 24 272 174 171 153 170 190 191 164 160 197 231 214 216 192 187 181 169 165 160 158 145 117 114 110 120 139 113 110 122 124 130 219 227 143 117 129 157 183 185 185 203 213 213 217 220 214 211 210 207 207 207 207 207 209 214 213 209 206 203 204 205 201 196 189 182 176 167 162 162 164 168
86 215 210 83 304 215 183 1 241 183 116 121 155 157 148 86 87 173 108 35 196 177 169 169 196 216 168 66 217 180 186 186 174 164 169 163 141 136 127 149 164 125 121 119 121 152 199 182 89 94 131 160 173 180 187 201 212 214 218 224 220 213 208 204 207 207 207 206 206 209 211 210 207 203 205 207 204 201 196 188 183 177 173 173 171 169
123 178 188 13 139 174 67 10 299 243 182 170 177 174 159 131 143 169 164 162 14 169 180 173 192 170 81 29 303 312 287 207 174 167 162 137 128 127 118 124 122 108 119 129 141 156 143 88 81 95 130 153 160 169 185 199 208 211 215 221 221 216 204 196 201 203 204 204 205 208 211 211 208 204 206 209 206 203 201 196 191 187 185 186 183 178
125 116 117 68 39 138 37 17 328 245 129 110 84 108 153 138 144 178 187 174 141 144 156 142 193 142 67 9 315 299 296 205 153 157 135 117 117 116 108 106 107 111 116 119 119 111 100 96 98 108 118 126 131 137 164 191 205 214 218 221 222 220 218 215 207 201 198 199 202 207 208 210 211 208 207 207 206 206 206 203 200 195 195 197 195 193
118 81 93 102 44 329 121 110 335 289 123 91 55 50 208 152 101 136 180 154 156 162 148 163 191 135 55 10 3 26 68 92 96 104 107 109 111 109 112 114 109 105 98 93 88 83 98 110 111 113 114 112 116 122 136 161 184 205 213 215 208 206 217 223 212 201 196 196 200 203 205 210 214 212 209 206 205 209 210 208 205 202 199 201 203 203
146 96 108 127 139 139 162 182 197 173 89 73 59 16 323 97 105 115 99 130 177 178 164 193 189 122 56 31 43 58 81 91 86 87 95 96 101 104 107 102 93 89 85 82 87 88 90 95 96 102 110 116 123 131 143 147 146 158 172 184 185 180 187 195 193 195 198 199 199 198 201 207 205 203 207 210 209 212 214 210 207 204 200 203 211 212
86 104 101 161 180 173 170 189 185 147 111 92 92 20 5 92 126 137 133 171 192 172 163 202 165 119 87 43 39 36 47 75 78 79 81 75 76 80 76 76 73 73 74 67 67 70 68 66 67 73 83 100 119 130 140 140 139 146 147 152 158 157 167 172 172 181 191 198 199 197 199 198 193 195 209 221 219 217 214 210 206 204 203 209 218 220
98 59 37 57 156 145 132 153 258 249 149 107 91 54 17 339 342 106 125 173 171 146 165 221 114 138 121 29 22 19 20 44 60 58 69 72 64 65 66 70 68 60 56 52 50 51 50 47 46 48 51 55 66 86 106 119 135 147 144 140 134 128 153 165 164 168 179 188 192 194 196 195 196 202 210 217 220 214 208 203 200 199 202 209 216 215
93 39 4 34 39 35 36 47 61 43 57 65 53 25 1 332 328 75 98 133 148 155 177 180 133 145 108 11 5 7 3 14 32 30 44 53 43 58 78 77 73 66 57 51 45 44 46 44 38 37 38 38 38 45 60 81 109 131 136 135 133 131 152 168 166 166 167 172 176 182 189 191 194 198 201 205 208 203 195 191 189 189 193 199 202 204
103 68 308 39 63 52 30 9 49 72 69 62 44 22 359 345 350 64 78 57 176 186 156 135 132 120 60 1 358 6 0 5 21 17 31 38 30 69 89 82 72 63 57 53 48 45 47 46 43 39 38 38 37 36 39 46 63 89 113 126 133 140 157 171 172 170 164 161 160 162 168 170 169 172 180 187 190 188 186 186 186 189 195 197 199 206
111 104 237 160 82 53 26 13 49 66 71 60 43 29 17 13 22 64 84 56 63 71 71 107 108 88 34 347 359 8 355 12 44 45 51 50 51 78 82 75 67 62 57 54 51 51 53 52 51 47 43 41 39 37 37 37 45 66 93 115 130 143 152 167 176 175 170 162 154 152 154 157 157 159 166 177 182 183 188 195 197 199 200 200 204 213
112 138 197 139 80 40 13 24 44 49 53 48 32 24 26 25 21 34 49 40 69 87 91 96 93 79 36 15 34 34 29 54 58 54 53 51 56 75 77 69 64 62 60 58 57 57 56 55 52 47 43 41 41 44 46 46 50 62 77 99 120 127 128 141 165 176 181 180 175 172 172 172 171 169 173 184 191 191 195 201 201 196 194 195 197 200
86 126 133 79 114 178 4 46 60 56 51 28 359 19 20 16 19 30 34 359 358 102 126 127 102 90 82 75 67 58 56 58 54 49 51 54 56 67 73 70 66 63 60 61 61 58 57 55 52 49 45 42 43 48 52 53 56 59 64 81 101 108 117 133 152 167 178 186 188 188 186 184 180 178 180 187 193 192 191 192 189 184 184 184 183 182
99 140 146 137 157 180 49 78 91 82 73 328 290 58 32 53 111 107 51 18 358 22 147 142 109 108 117 108 82 66 58 57 52 44 46 54 59 66 68 66 64 62 59 59 59 58 57 55 54 52 49 48 49 53 60 63 63 61 63 75 89 100 109 118 127 134 142 153 161 168 174 177 177 178 182 186 188 183 172 167 166 166 165 162 159 154
111 128 135 138 149 148 114 107 129 164 174 236 335 282 244 162 120 115 72 27 16 43 86 89 100 108 106 97 89 81 70 62 59 53 47 49 58 66 66 63 61 59 55 55 54 52 50 51 52 50 46 44 43 51 62 68 70 71 72 76 86 94 95 95 100 105 109 118 129 138 148 157 163 168 173 174 169 157 146 142 142 143 144 141 139 133
107 99 98 86 98 116 120 130 162 193 208 349 355 333 176 134 113 102 79 46 35 65 94 99 103 106 104 98 95 92 88 80 70 60 51 44 46 60 66 62 58 57 53 48 45 41 36 36 38 39 38 35 33 40 51 58 65 70 73 76 84 92 94 91 89 89 89 91 100 113 125 133 139 140 140 142 139 134 132 132 132 133 134 133 131 127
116 109 106 76 78 124 143 163 181 208 331 351 41 71 95 117 112 92 71 45 24 22 82 105 109 112 111 108 104 101 100 91 75 59 48 42 39 50 62 60 57 57 53 48 47 43 40 38 40 44 45 37 33 37 40 43 54 62 64 69 77 86 96 98 93 91 88 83 84 94 109 121 128 131 132 133 134 133 133 134 134 136 137 136 133 131
120 127 123 86 62 140 133 150 296 333 294 181 143 89 44 44 5 31 70 58 26 356 30 112 123 127 128 130 130 133 146 96 78 59 40 38 37 43 56 58 59 61 57 54 56 54 52 51 50 54 56 48 41 38 31 27 40 50 47 47 56 68 83 94 99 100 99 99 101 102 104 109 112 116 125 133 140 142 143 144 145 144 143 141 138 136
66 118 165 158 151 117 114 124 188 264 229 168 118 55 5 6 313 279 124 95 58 11 2 110 121 116 138 162 161 196 252 70 78 61 31 31 30 36 49 51 52 57 56 52 52 48 47 48 46 47 51 50 44 38 32 23 20 20 15 14 23 35 48 71 102 113 112 122 132 136 141 152 158 158 163 169 167 160 156 154 152 150 151 150 146 144
48 34 107 142 137 142 150 165 192 205 205 67 39 347 338 334 221 210 164 131 83 23 4 99 94 79 81 117 134 184 216 113 95 74 22 19 20 25 37 39 39 42 44 43 41 37 36 39 41 40 41 40 35 30 29 26 21 16 6 359 359 2 4 1 348 314 286 228 215 205 195 193 191 187 188 190 184 173 165 162 159 156 154 153 150 147
41 26 26 125 141 155 161 171 208 206 72 7 323 316 336 49 165 188 190 161 118 43 9 76 73 57 40 29 40 68 72 88 101 74 15 6 18 29 34 33 30 31 32 32 30 29 29 30 32 33 32 28 23 19 18 19 21 21 12 356 340 333 336 335 324 312 304 295 282 253 216 197 187 184 184 185 184 180 175 173 171 167 162 158 155 150
35 27 31 116 118 118 146 136 94 216 187 300 304 313 331 160 181 197 189 132 111 105 76 66 66 55 42 43 54 65 58 55 70 58 20 9 24 30 30 30 31 32 31 29 27 25 24 22 23 23 21 17 13 10 8 7 10 12 6 358 354 349 342 333 321 306 297 290 280 268 247 217 201 198 199 197 197 195 189 184 183 183 182 183 181 176
31 32 39 74 77 61 103 108 92 133 98 339 314 307 293 201 186 151 106 102 110 106 89 69 66 59 52 53 57 64 63 57 52 42 25 23 24 19 18 21 25 26 24 23 22 19 15 13 13 12 10 8 6 4 1 358 358 356 350 350 355 353 345 338 330 318 306 293 279 270 260 241 223 213 209 208 209 203 196 195 198 199 200 199 193 188
11 17 60 62 51 106 116 103 147 153 49 348 315 292 323 57 127 115 110 115 107 98 90 80 72 64 65 67 61 57 60 56 43 28 24 27 23 16 16 19 18 15 13 12 12 11 7 5 2 360 358 357 355 354 353 352 350 345 338 335 337 336 334 334 332 326 318 306 292 279 268 254 238 225 220 221 220 213 208 209 208 203 200 198 193 190
8 358 114 86 355 313 128 104 107 72 356 343 332 86 72 71 100 115 111 110 105 93 85 80 74 65 65 67 62 57 56 43 27 20 18 16 15 12 13 13 12 9 7 3 1 2 360 355 350 347 345 344 344 342 341 342 340 334 328 324 323 323 324 324 324 323 320 314 305 293 281 268 251 237 233 234 228 218 215 215 211 204 201 199 196 193
31 28 65 72 50 31 58 92 114 318 341 2 44 84 88 89 93 88 91 98 99 89 79 78 81 74 58 49 44 47 47 29 16 19 14 2 359 2 1 0 0 359 356 352 350 350 348 341 335 332 330 331 333 332 329 330 330 326 321 317 316 318 318 316 315 316 315 313 310 303 295 285 267 251 243 237 228 220 218 217 212 207 204 202 202 201
67 46 28 77 105 84 62 76 102 88 28 34 45 61 74 77 72 70 88 97 92 89 92 82 85 81 56 42 42 42 40 24 5 8 6 350 342 346 347 346 347 348 344 340 339 337 332 326 320 318 317 318 321 322 320 319 319 319 317 314 314 315 313 310 310 309 308 307 307 305 303 296 281 264 249 238 229 225 224 221 217 213 209 206 206 207
76 53 65 99 127 112 98 128 155 122 120 116 65 77 92 74 63 48 62 89 93 85 77 67 81 90 76 63 56 38 30 31 0 346 344 337 334 337 338 337 337 336 332 327 326 324 319 314 310 309 308 307 307 310 310 308 308 309 309 312 314 314 311 308 306 305 303 301 300 299 299 298 291 274 255 241 233 229 227 224 221 218 214 210 210 211
44 108 109 108 92 56 108 141 154 94 161 216 189 153 160 123 104 82 69 85 90 78 68 60 66 72 61 59 62 20 355 6 355 339 334 331 327 327 327 327 325 324 321 318 316 313 309 305 302 300 300 299 299 301 300 298 298 298 299 303 307 310 310 307 304 301 298 295 295 293 289 290 291 279 259 244 234 228 224 222 221 221 219 216 215 215
308 177 118 113 104 91 101 138 156 156 183 211 213 204 200 118 101 81 69 75 79 75 68 58 55 59 51 48 43 348 340 348 357 346 333 326 327 326 326 327 325 323 322 318 313 310 306 301 297 296 295 293 294 295 293 292 293 293 294 295 297 303 307 306 303 299 294 291 290 288 284 283 285 278 259 242 231 227 225 223 222 223 224 222 221 224
214 137 125 124 125 126 156 171 169 161 163 197 203 192 151 118 115 111 102 95 94 100 100 83 81 106 115 63 18 350 342 340 344 341 329 324 328 329 328 328 326 324 323 321 317 313 308 303 299 296 293 293 292 291 289 289 290 291 292 291 290 294 302 306 304 298 292 288 287 285 282 278 276 271 258 243 236 237 239 239 237 235 236 236 236 239
108 135 140 134 126 124 182 170 169 154 33 144 171 154 139 144 151 141 137 128 123 131 137 108 11 285 304 37 19 355 338 328 328 329 323 317 318 316 315 316 316 315 316 318 317 313 308 304 300 295 292 292 291 289 286 286 286 288 289 287 284 286 293 301 303 296 289 285 284 282 280 277 273 264 253 245 243 241 242 245 247 248 248 249 249 250
Height
759 762 765 763 762 759 759 761 762 766 767 766 768 769 771 771 764 758 758 760 761 758 758 761 758 754 760 764 761 760 760 763 764 765 765 764 766 770 772 774 775 777 776 774 776 778 779 781 783 785 787 790 792 793 795 797 798 800 802 805 807 808 809 810 812 814 816 818 819 820 821 823 824 825 826 827 827 828 828 829 829 829 829 829 830 830
760 765 765 758 757 759 762 767 766 768 770 768 769 769 771 772 763 756 759 761 762 758 759 766 761 758 763 765 763 762 763 765 764 765 766 764 765 768 770 773 774 776 777 776 777 778 779 780 782 785 787 789 790 792 794 797 798 799 801 804 806 807 809 810 812 814 817 818 819 821 822 823 824 826 827 827 828 828 829 829 830 830 830 830 830 831
764 763 758 755 762 766 769 772 768 767 770 769 770 770 767 768 763 759 759 760 762 759 758 764 761 761 768 768 767 766 766 766 763 764 765 764 766 767 769 772 774 776 777 778 778 778 779 780 782 784 786 788 790 792 794 797 799 799 801 803 804 806 808 809 812 814 817 819 821 822 823 825 826 827 827 828 828 828 829 830 830 831 831 831 831 832
766 759 755 760 765 764 768 773 769 767 770 768 769 767 763 765 764 758 757 759 763 761 758 760 759 764 770 770 769 769 768 768 766 765 765 764 765 766 768 770 772 775 776 777 778 779 779 779 780 782 785 788 790 793 795 798 800 800 801 801 803 805 807 809 811 813 816 819 821 823 825 826 827 827 828 828 828 829 829 830 831 831 832 832 832 832
759 756 761 765 764 761 765 772 770 766 767 769 770 765 761 762 759 755 758 760 759 760 760 759 759 764 769 770 770 769 769 769 767 767 767 766 765 766 768 768 770 772 773 776 776 777 777 777 778 781 784 788 791 794 797 799 800 801 802 803 804 806 807 809 811 812 815 819 822 824 825 827 827 828 828 828 828 829 830 830 831 832 832 833 833 833
754 757 762 761 763 763 763 768 768 764 764 767 765 760 757 757 756 756 760 760 757 760 764 765 764 767 768 769 770 769 769 768 767 767 767 766 766 767 769 769 769 769 770 773 774 774 775 776 777 780 785 789 792 795 797 799 800 801 804 806 808 810 810 811 811 812 814 818 821 822 824 826 827 827 828 828 828 829 830 831 832 832 833 834 834 835
754 759 760 758 761 764 764 766 765 763 764 763 757 754 756 757 758 759 757 757 760 764 770 771 767 767 767 767 771 771 768 767 768 768 765 764 765 767 769 768 768 769 769 771 771 772 772 773 775 779 785 789 792 794 796 798 800 801 803 805 807 809 809 810 812 813 815 818 820 821 823 825 826 827 827 828 829 829 830 831 832 833 834 835 835 836
754 759 761 759 761 765 766 762 760 760 759 756 754 755 758 758 758 759 756 757 763 765 769 769 763 764 767 768 772 772 768 768 768 767 766 764 764 764 765 766 766 767 768 769 770 770 771 773 777 781 783 787 790 792 794 795 797 798 800 802 803 803 805 808 811 814 815 817 819 820 822 824 825 826 827 828 829 829 831 832 833 834 835 836 836 837
752 754 756 756 759 763 757 751 754 756 752 754 759 760 761 761 759 758 756 761 770 768 765 765 764 766 768 765 768 769 766 767 767 764 764 763 763 763 762 762 763 764 765 767 769 770 772 776 781 785 787 788 789 790 791 793 794 796 798 800 800 801 804 808 811 813 816 817 818 820 822 823 825 826 827 828 829 830 831 832 834 834 835 836 837 837
751 750 749 751 753 752 749 750 754 751 749 757 763 761 761 764 764 762 761 762 769 770 768 771 772 772 770 763 762 764 762 764 766 763 763 764 763 762 762 762 762 763 764 765 768 771 775 779 783 787 789 789 789 789 790 791 793 795 795 796 798 800 803 807 810 812 815 818 819 819 821 822 824 825 826 827 828 829 831 832 834 835 836 837 837 838
750 750 750 748 746 746 749 757 759 754 754 758 757 755 757 761 761 763 766 763 768 774 774 781 783 776 773 767 763 764 764 768 769 766 765 765 763 762 761 762 762 763 765 767 770 774 777 780 781 783 784 785 785 787 789 791 792 792 793 795 796 798 801 805 808 811 814 817 818 818 819 820 822 824 825 826 827 829 830 832 833 835 836 837 838 838
750 751 749 744 743 746 749 756 760 758 759 757 752 752 758 763 763 766 769 768 775 780 779 787 790 780 774 768 763 764 767 770 772 769 768 766 764 763 762 762 762 763 766 768 771 775 779 781 781 781 781 782 783 784 786 787 788 789 792 795 797 799 801 804 807 810 813 816 817 817 818 819 821 822 824 825 826 828 829 831 833 834 836 838 839 839
749 745 745 743 742 743 743 752 759 759 758 755 753 756 764 772 777 777 778 779 780 779 781 789 788 779 773 767 764 767 768 769 771 770 770 768 765 764 764 764 763 764 766 768 770 775 779 780 780 781 781 781 781 783 787 789 789 791 793 795 796 798 801 804 806 809 812 814 815 816 818 819 820 821 823 824 825 827 829 830 832 834 836 838 839 840
750 746 744 743 742 739 738 746 754 757 757 754 753 757 765 777 790 793 793 795 788 779 784 789 783 778 775 769 767 770 770 770 771 771 770 769 768 767 766 765 766 767 768 769 772 776 779 780 780 782 782 783 784 787 793 797 797 795 795 796 797 798 801 804 806 808 811 813 815 816 817 819 820 820 822 823 825 827 828 830 832 834 836 837 839 840
757 754 744 739 740 739 737 738 742 747 753 756 754 753 758 767 778 786 785 785 782 779 785 787 781 778 776 771 769 770 771 771 771 771 771 770 769 768 767 767 768 770 772 772 774 777 780 781 782 784 785 786 789 794 797 799 797 795 795 796 797 798 800 803 805 808 810 813 814 816 817 818 820 820 822 823 825 826 828 830 832 834 835 837 839 840
763 756 740 739 742 740 738 736 736 742 752 763 760 754 757 756 759 779 789 784 781 780 784 785 782 779 775 772 772 772 772 772 772 772 771 770 770 768 768 769 770 772 774 775 776 778 780 779 780 784 788 790 792 795 797 796 793 794 795 795 796 797 799 802 805 807 809 812 814 815 817 818 819 820 821 823 824 826 828 830 832 834 835 837 838 840
762 753 739 741 743 739 740 738 738 741 747 760 761 755 759 756 755 776 795 797 792 783 785 790 784 778 774 772 772 773 774 774 774 773 772 772 771 770 770 770 771 772 774 775 776 777 778 778 778 781 789 796 793 789 791 792 791 792 793 794 795 798 800 803 806 807 809 811 813 815 816 818 819 820 821 822 824 826 828 830 832 833 835 837 838 840
753 749 742 742 741 741 743 740 739 741 743 751 754 751 757 761 759 766 780 794 794 784 787 793 788 781 776 771 770 772 773 774 775 774 774 774 772 773 774 773 773 773 773 774 776 778 777 777 778 779 788 797 793 786 786 789 791 792 793 794 796 798 801 802 805 806 808 810 812 814 815 817 818 819 821 822 824 826 828 830 832 833 835 836 838 839
748 748 746 745 743 742 741 739 742 745 743 744 744 745 752 760 763 768 777 785 787 789 792 793 795 788 775 768 768 769 770 772 774 775 775 775 775 776 777 777 777 776 776 776 777 781 782 779 778 777 785 795 794 787 786 788 791 793 794 796 797 800 801 802 804 805 807 809 811 813 815 816 818 818 820 821 823 826 827 829 831 833 835 836 837 839
748 750 749 747 745 744 741 741 745 747 747 746 746 749 753 756 760 765 771 770 773 790 796 791 792 782 767 766 765 764 767 770 772 775 775 776 778 779 779 779 779 779 780 779 777 781 785 783 779 776 781 792 794 791 790 790 791 793 795 797 799 801 802 802 804 805 806 808 810 812 814 816 817 817 819 821 823 826 827 829 831 832 834 835 836 838
746 751 751 747 745 746 746 747 749 748 748 749 750 754 757 762 765 764 771 773 770 781 789 790 788 774 764 771 768 763 767 768 770 773 775 777 779 780 780 780 780 779 780 781 780 782 785 783 780 780 784 792 793 792 792 791 793 794 795 797 799 801 802 803 804 805 806 807 809 811 812 814 816 816 818 820 822 825 827 828 830 831 832 834 835 837
746 750 751 750 748 748 750 753 755 752 751 750 749 751 755 760 762 762 773 782 776 775 781 783 778 768 770 779 775 770 771 770 771 772 774 777 779 780 781 779 780 780 779 781 782 782 783 781 781 784 789 793 793 792 793 793 794 795 796 798 799 801 802 803 804 805 806 807 808 810 811 813 814 815 817 819 821 824 826 827 828 829 831 832 834 836
745 747 751 755 755 754 754 756 758 757 756 753 752 757 758 754 752 755 764 774 778 782 782 777 772 768 775 783 779 777 777 773 773 773 774 779 779 780 781 780 781 781 780 781 781 780 781 782 784 787 789 791 791 792 793 793 795 795 797 798 799 800 801 802 804 804 806 807 808 809 810 812 813 815 816 818 820 823 825 826 827 828 830 831 833 835
746 750 755 760 759 753 750 753 756 757 755 753 757 766 765 756 753 756 759 763 771 779 777 773 773 771 776 783 780 778 778 775 775 776 776 780 780 781 781 781 781 781 780 781 780 781 783 784 786 788 789 791 791 792 793 793 794 795 795 797 798 800 801 801 803 804 805 806 807 809 810 811 813 814 816 818 819 822 824 825 826 827 829 830 831 833
747 753 756 761 765 762 758 757 756 753 754 758 764 770 770 766 762 762 764 762 765 774 771 766 769 773 778 783 780 777 777 775 777 778 777 780 781 782 782 782 782 781 781 782 782 783 784 785 787 788 790 792 792 793 793 793 794 794 794 796 797 799 800 801 802 803 804 806 807 808 810 811 813 815 817 818 819 821 822 824 825 826 827 829 830 831
751 760 760 758 762 766 767 765 762 759 760 763 767 768 769 769 761 757 762 760 761 775 775 763 764 773 780 783 782 782 781 779 779 779 779 781 782 783 784 784 784 784 784 785 785 785 786 787 789 791 793 794 795 795 795 794 794 794 794 795 796 798 799 800 802 803 804 806 806 808 809 811 813 814 817 818 819 820 821 823 824 825 826 828 829 830
757 769 770 764 759 760 763 767 769 767 762 761 764 766 768 771 764 756 757 758 762 773 773 766 769 775 780 786 788 789 788 785 785 784 782 784 784 785 786 786 786 787 787 788 788 788 789 790 791 793 795 796 797 797 797 797 796 796 796 796 797 798 799 800 802 803 804 806 806 808 809 810 811 813 815 817 818 819 821 822 823 824 825 826 828 829
759 769 774 772 770 770 770 770 770 768 765 767 769 768 769 771 766 756 755 762 766 766 767 772 776 776 784 793 795 795 796 792 791 790 788 788 788 788 788 788 789 790 790 790 791 791 793 794 794 796 797 797 798 798 798 799 798 798 798 797 798 799 800 800 802 803 805 806 807 808 808 809 811 812 814 817 818 819 820 821 822 823 824 825 826 827
758 770 774 774 775 777 777 774 769 768 773 778 779 778 775 771 765 760 766 776 772 762 765 777 781 782 791 799 799 800 801 798 797 797 795 794 793 790 789 790 791 792 792 793 794 795 796 797 798 798 799 799 800 800 800 800 800 800 800 799 799 800 801 801 803 804 806 807 808 808 809 810 811 813 815 816 818 819 820 820 821 822 823 824 825 826
755 770 776 774 774 778 780 777 772 770 773 778 782 787 785 782 779 776 782 790 783 777 783 786 786 795 802 803 802 802 802 801 800 799 797 797 796 793 791 793 794 795 796 797 798 799 799 800 801 801 802 802 802 802 802 802 802 802 802 802 802 802 803 803 804 805 807 808 809 810 810 811 812 813 815 816 817 818 819 819 820 821 822 823 824 824
752 768 775 771 774 780 781 778 774 771 773 776 781 787 785 781 781 783 790 795 786 786 796 792 789 801 808 805 804 804 801 800 799 799 800 801 799 796 795 797 798 799 799 800 801 801 802 803 803 804 804 804 804 804 804 803 803 803 804 804 805 805 805 805 805 806 808 809 810 810 811 812 812 813 815 815 816 817 818 818 819 820 822 823 823 823
752 768 777 774 774 780 784 783 779 777 780 780 780 787 788 783 783 790 799 803 792 787 791 786 786 801 809 806 806 804 802 803 803 803 804 803 801 799 799 801 802 802 803 803 803 803 804 804 805 806 806 806 805 805 805 805 805 805 805 806 806 806 806 806 807 807 808 809 810 811 812 812 813 814 814 815 816 816 817 817 818 820 821 822 822 823
756 763 772 773 773 781 789 790 786 784 785 784 786 797 803 799 800 803 806 810 808 800 791 785 790 805 810 806 806 807 807 808 809 809 808 806 805 803 803 805 805 806 806 806 806 806 806 807 807 808 808 808 808 807 807 807 807 807 807 807 807 808 808 808 808 809 809 810 811 812 812 813 814 814 815 815 816 816 817 817 818 820 820 821 822 823
760 760 768 771 771 782 792 791 790 789 787 789 799 808 808 803 803 806 809 812 812 808 800 797 803 810 810 808 810 811 812 813 813 813 812 810 808 807 807 808 808 809 809 808 808 809 809 809 809 810 810 811 811 811 810 809 809 809 809 809 810 810 810 810 811 811 811 812 812 813 814 814 815 815 816 816 817 817 818 818 819 820 821 822 823 824
759 763 773 776 776 786 793 788 788 791 790 796 807 808 805 804 802 804 810 813 811 809 807 806 809 811 811 813 813 813 814 815 815 815 815 814 813 811 810 811 811 811 811 811 812 812 811 811 811 811 812 812 813 813 812 812 812 811 811 811 812 812 811 812 813 813 813 814 814 815 815 816 816 817 818 818 818 819 819 820 821 821 822 823 824 825
757 763 775 781 784 790 791 786 788 796 802 806 806 804 804 804 801 798 804 811 814 813 811 810 813 815 815 815 815 814 814 814 814 816 818 818 817 815 814 814 815 814 814 815 815 814 814 814 813 813 813 813 814 814 813 814 814 814 814 814 814 814 813 813 814 815 815 815 816 817 817 818 818 818 819 820 820 821 821 822 822 823 823 824 825 825
760 762 768 777 788 791 789 792 801 805 805 804 804 805 806 805 803 802 805 814 819 818 815 814 815 815 815 815 816 816 814 811 812 817 819 819 819 818 817 818 818 818 818 818 818 817 817 817 816 815 815 815 815 814 814 814 814 815 815 815 816 816 816 816 817 817 817 817 817 818 818 819 820 820 821 822 822 823 823 823 824 824 824 825 825 826
763 762 759 767 790 798 791 796 804 798 792 796 804 809 809 809 811 809 806 811 818 820 819 817 815 816 816 813 814 817 814 811 814 819 821 821 821 820 820 820 820 820 820 820 820 819 819 818 818 817 817 816 816 816 815 815 815 815 816 816 816 816 817 818 819 819 819 818 818 818 818 819 819 820 821 823 823 823 824 824 824 825 825 825 826 826
766 769 763 764 786 796 784 782 790 790 792 803 810 810 808 811 815 811 803 807 818 822 820 818 817 817 817 814 814 814 811 810 817 822 822 823 824 823 822 822 821 821 821 821 821 820 820 819 819 818 818 817 817 818 817 816 816 816 816 816 816 817 817 818 819 819 819 819 819 818 818 818 818 818 819 821 822 822 823 823 824 824 825 825 825 825
772 776 772 770 783 789 781 781 793 800 807 813 812 809 809 812 813 805 796 803 818 823 821 819 818 818 818 817 815 813 811 813 819 823 825 825 825 825 824 824 823 822 822 821 821 821 820 820 819 819 818 818 819 819 818 817 817 816 816 816 816 817 817 817 818 818 818 818 818 818 818 818 818 818 818 819 820 820 821 822 822 823 824 824 824 824
784 788 787 785 789 791 787 790 801 809 813 814 812 810 811 812 807 798 798 809 820 822 821 821 820 819 820 817 815 816 820 822 823 825 827 826 826 826 826 826 825 824 823 823 822 821 821 820 820 820 820 819 819 819 818 818 817 816 816 816 816 817 817 816 816 817 817 817 817 817 818 818 818 817 818 818 819 819 819 820 821 821 822 823 823 823
793 795 795 796 798 800 798 795 798 805 812 815 813 811 810 806 801 802 812 820 822 821 822 823 822 822 822 821 820 823 825 826 827 827 827 827 827 827 827 826 826 825 824 823 822 822 821 821 821 820 820 820 820 819 818 818 817 816 816 816 816 816 816 816 816 816 815 815 815 815 816 817 817 817 817 817 817 818 818 819 819 820 820 821 822 822
797 797 798 803 807 805 801 799 797 802 812 817 813 809 808 807 808 814 821 823 821 822 823 823 824 825 824 824 825 826 826 827 828 828 828 829 829 828 828 827 827 826 825 824 823 823 822 822 821 821 821 821 820 819 819 818 817 817 816 816 816 815 815 815 815 814 814 813 813 814 814 814 815 815 815 815 816 816 817 817 818 818 819 820 821 821
800 800 800 807 809 801 797 803 809 812 816 816 812 810 812 814 816 819 820 820 822 824 823 823 825 826 825 826 827 827 827 829 829 829 830 830 829 829 829 828 828 827 826 826 825 824 823 822 822 821 821 821 820 820 819 818 818 817 816 816 815 815 814 813 813 813 812 811 811 811 811 812 812 813 813 814 814 814 814 815 816 817 817 818 819 820
805 805 803 808 815 812 807 813 820 821 820 818 814 815 818 819 820 820 820 822 825 825 825 826 827 827 827 827 827 828 829 830 830 831 831 831 830 830 829 829 829 828 827 826 826 825 824 823 822 822 821 820 820 819 819 818 817 816 816 815 815 814 813 812 811 811 810 810 809 809 808 809 809 810 811 811 811 812 812 813 814 814 815 816 817 817
809 810 807 810 817 819 818 820 823 822 822 821 819 820 821 821 822 823 823 824 826 826 827 827 827 828 829 828 828 829 831 831 832 831 832 831 831 830 829 829 828 827 827 826 825 825 824 823 822 821 820 819 819 818 818 817 816 815 814 814 813 813 812 811 810 810 809 808 808 807 807 806 806 806 807 808 809 809 809 810 811 811 812 813 814 815
809 810 810 812 815 817 819 822 823 822 822 823 822 822 822 822 823 824 824 825 826 826 827 828 828 829 829 829 830 831 831 832 832 832 832 831 830 829 829 828 827 827 827 826 825 824 824 822 821 820 819 818 818 817 816 816 815 814 813 812 812 811 810 809 809 808 807 807 806 806 805 805 804 804 804 805 806 807 807 808 809 809 810 810 811 812
809 809 811 815 817 818 819 821 822 822 823 823 822 822 822 823 824 825 825 826 826 827 828 828 829 829 830 830 831 831 831 832 832 831 831 831 830 830 829 828 828 827 826 825 825 824 822 821 820 819 818 817 816 815 815 814 813 813 812 811 811 810 808 808 807 806 806 805 804 804 803 803 803 802 802 803 803 804 805 806 806 807 807 808 809 810
810 810 813 816 818 821 821 822 823 823 822 822 822 823 823 823 824 825 826 827 827 828 829 829 830 830 831 831 831 831 830 830 831 831 831 829 829 829 828 827 826 825 824 824 823 822 821 820 819 817 816 815 815 814 813 812 811 810 810 809 809 808 807 806 805 804 803 802 802 801 801 801 801 801 801 801 802 803 804 804 805 806 806 806 807 808
810 811 815 816 817 819 818 817 819 820 818 819 821 822 823 824 825 826 827 828 828 829 830 830 831 831 831 831 831 831 831 830 830 830 829 828 828 827 826 826 824 823 822 822 820 819 819 818 817 816 815 814 813 812 811 810 808 808 808 807 807 806 805 804 803 801 800 800 800 799 799 799 799 799 799 800 801 802 803 803 804 805 805 805 805 806
810 811 813 812 813 814 812 813 817 817 815 817 820 821 824 825 825 826 828 828 829 830 830 830 831 831 831 832 832 831 831 831 830 830 829 828 827 826 825 824 823 821 820 819 818 817 816 815 814 814 812 812 811 810 809 808 806 806 805 804 804 803 803 803 801 799 798 797 797 796 796 796 796 796 797 798 799 800 801 802 802 803 803 803 803 804